Showing default

HYSIS, 43719

Orbit data source: Space-Track

HYSIS, 43719 is a payload satellite owned by ISRO (IN) in SSO that was launched on Thu, 29 Nov 2018 UTC via a PSLV launch vehicle from the Sirharikota (SRI). Payload-class satellites include a variety of spacecraft equipped with specific instruments for various scientific and technological missions. These include communications satellites like Starlink; space stations such as the ISS; scientific satellites like the Hubble; Earth observation satellites from companies like Planet Labs, Umbra, and HawkEye 360; GPS; miniature CubeSats for education and research; and military/defense satellites.

Loading next visibility...
Identifier
43719, 2018-096A
Orbit
SSO
Last TLE update
3 hours ago
Origin
Manufacturer
ISRO
Mission
Operational Civil Imaging
Bus & Motor
SSB-2, AOCS
Mass
380 kg wet, ~350 kg dry
Launch date (UTC)
2018-11-29 (7 years ago)
Launch vehicle
PSLV
Launch site
Sirharikota (SRI)
Object type
Payload
Rocket body
Debris
Shape & HBR
Box + 2 Pan, 6 m
Radar Cross Section
4.485 m², Large (>1 m²)

Expand to show TLE details & history

TLE from 3 hours ago
0 HYSIS
1 43719U 18096A   25184.16520235  .00000906  12997-9  12388-3 0  9999
2 43719  98.0297 247.7193 0001667 125.3838 234.7529 14.78626803356432
Epoch: 2025-07-03T03:57Z
TLE epoch observation values (Epoch: 2025-07-03T03:57:53.483Z)
Latitude
0.00003°
Longitude
-93.18942°
Altitude
637.353 km
Speed
7.539 km/s
True Right ascension
16h 30m 52s
True Declination
0° 00' 00"
Sunlit
Object was in full shadow at epoch
Visualization orbit readout
Latitude
51.08921°
Longitude
-103.05448°
Altitude
641.551 km
Speed
7.542 km/s
Apparent Right ascension
11h 06m 52s
Apparent Declination
18° 57' 34"
Sunlit
Object is in daylight
Visualization observer readout
Local Sidereal Time
19:12:35
Azimuth
305.027° NW
Elevation
-9.774°
Doppler factor
1
Orbital elements
Apogee altitude
631.879 km
Perigee altitude
629.542 km
Semi-major axis
7,008.848 km
Eccentricity
0.00017
Inclination
98.0297°
RAAN
247.7193°
Arg. of periapsis
125.3838°
True anomaly
Unknown
Mean anomaly
234.7529°
Eccentric anomaly
Unknown
Mean motion
3.69891 °/min
Orbital period
97.33 mins
BSTAR
0.00012388
Loading maneuver chart data...
Loading SW <> Apogee altitude chart data...

HYSIS Visibility forecast

Observer location: undefined°, undefined°

Span
Click to sort rows by Start time (UTC) header in descending order
Start Az.
Max El. time (UTC)
Max El. Az.
Max El.
End time (UTC)
End Az.
7 mins2025-07-03 17:31:44.702Z357.309° N2025-07-03 17:34:44.702Z295.592° NW37.45°2025-07-03 17:38:44.702Z213.374° SW
6 mins2025-07-04 04:27:44.702Z180.811° SSW2025-07-04 04:30:44.702Z291.309° WNW41.622°2025-07-04 04:33:44.702Z339.214° N
|